sat.trackr.live / text

‹ back to catalog

YAOGAN-35 03B

NORAD 53318 · 2022-088C

PAYLOAD ACTIVE UNKNOWN

§ Identity

Operator
Country
PRC
Launch date
2022-07-29
Launch site
XICLF
Launch vehicle
Mass (kg)
RCS (m²)

External: N2YO · Heavens-Above · Gunter

§ Orbital elements

Epoch: 2026-05-25T00:01:40.895328Z

Period
94.46 min
Inclination
34.9896°
Eccentricity
0.0011527
Mean motion
15.24396958 rev/d
Perigee alt
484.7 km
Apogee alt
500.5 km
Semi-major
6,870.7 km
B*
3.1437e-4
RAAN
354.9035°
Arg perigee
176.3367°
Mean anomaly
183.7434°
Rev number
21,280

§ Raw data

YAOGAN-35 03B1 53318U 22088C   26145.00116777  .00007881  00000+0  31437-3 0  99912 53318  34.9896 354.9035 0011527 176.3367 183.7434 15.24396958212804

JSON: /api/v1/satellites/53318 · /tle

For live sub-satellite position, see the globe view (requires WebGL).

§ Visibility from observer

Set your observer location to see the next 7 days of passes ≥ 10°. The values pass through the URL so the page stays shareable.

No JS? Fill the form by hand. The geolocation button needs JavaScript.